Change the Weather History Date:

Thursday, October 31, 2013

  Actual Average Record
Temperature  
Mean Temperature 78 °F -  
Max Temperature 82 °F 86 °F 93 °F (2006)
Min Temperature 75 °F 79 °F 75 °F (2013)
Cooling Degree Days 14    
Growing Degree Days 28 (Base 50)    
Moisture  
Dew Point 76 °F    
Average Humidity 94    
Maximum Humidity 100    
Minimum Humidity 84    
Precipitation  
Precipitation 0.00 in - - ()
Sea Level Pressure  
Sea Level Pressure 29.81 in    
Wind  
Wind Speed 7 mph ()    
Max Wind Speed 12 mph    
Max Gust Speed -    
Visibility 6.2 miles    
Events Rain    
Averages and records for this station are not official NWS values.
T = Trace of Precipitation, MM = Missing Value Source: Averaged Metar Reports

Daily Weather History Graph

Daily Weather History Graph

Search for Another Location

Airport or City:

Trip Planner

Search our weather history database for the weather conditions in past years. The results will help you decide how hot, cold, wet, or windy it might be!

Date:

Astronomy

Oct. 31, 2013 Rise Set
Actual Time 6:25 AM AST 6:07 PM AST
Civil Twilight 6:03 AM AST 6:29 PM AST
Nautical Twilight 5:38 AM AST 6:54 PM AST
Astronomical Twilight 5:13 AM AST 7:19 PM AST
Moon 3:41 AM AST (10/31) 3:58 PM AST (10/31)
Length of Visible Light 12h 25m
Length of Day
11h 41m
Waning Crescent, 10% of the Moon is Illuminated
Oct 31
Waning Crescent
Nov 3
New
Nov 10
First Quarter
Nov 17
Full
Nov 25
Last Quarter

Hourly Weather History & Observations

Time (AST) Temp. Heat Index Dew Point Humidity Pressure Visibility Wind Dir Wind Speed Gust Speed Precip Events Conditions
12:00 AM 80.6 °F 86.2 °F 75.2 °F 84% 29.86 in - ENE 9.2 mph - N/A   Unknown
2:00 AM 78.8 °F - 75.2 °F 89% 29.80 in - NE 8.1 mph - N/A   Unknown
2:55 AM 78.8 °F - 75.2 °F 89% 29.77 in 6.2 mi NE 6.9 mph - N/A   Scattered Clouds
4:00 AM 78.8 °F - 75.2 °F 89% 29.77 in - ENE 9.2 mph - N/A   Unknown
4:55 AM 82.4 °F 90.9 °F 77.0 °F 84% 29.83 in - ENE 8.1 mph - N/A   Unknown
5:00 AM 80.6 °F 86.2 °F 75.2 °F 84% 29.77 in - ENE 9.2 mph - N/A   Unknown
6:00 AM 78.8 °F - 75.2 °F 89% 29.80 in - ENE 4.6 mph - N/A   Unknown
6:55 AM 78.8 °F - 75.2 °F 89% 29.83 in - NE 9.2 mph - N/A   Unknown
7:55 AM 75.2 °F - 75.2 °F 100% 29.83 in 6.2 mi ENE 9.2 mph - N/A Rain Light Rain
8:55 AM 77.0 °F - 77.0 °F 100% 29.86 in 6.2 mi NE 3.5 mph - N/A Rain Light Rain
9:55 AM 80.6 °F 87.1 °F 77.0 °F 89% 29.86 in 6.2 mi ENE 10.4 mph - N/A Rain Light Rain Showers
10:55 AM 77.0 °F - 75.2 °F 94% 29.89 in 6.2 mi East 9.2 mph - N/A   Scattered Clouds
11:55 AM 77.0 °F - 77.0 °F 100% 29.86 in 6.2 mi ENE 6.9 mph - N/A Rain Light Rain
12:55 PM 78.8 °F - 77.0 °F 94% 29.83 in 6.2 mi NE 4.6 mph - N/A Rain Light Rain
2:00 PM 78.8 °F - 77.0 °F 94% 29.77 in - ENE 6.9 mph - N/A Rain Light Rain
3:00 PM 80.6 °F 87.1 °F 77.0 °F 89% 29.77 in 6.2 mi ENE 10.4 mph - N/A   Mostly Cloudy
4:00 PM 77.0 °F - 77.0 °F 100% 29.77 in - ENE 8.1 mph - N/A   Unknown
5:00 PM 77.0 °F - 77.0 °F 100% 29.77 in 6.2 mi North 8.1 mph - N/A Rain Rain Showers
6:00 PM 75.2 °F - 75.2 °F 100% 29.77 in 6.2 mi North 11.5 mph - N/A Rain Light Rain Showers
7:00 PM 75.2 °F - 75.2 °F 100% 29.77 in 6.2 mi North 6.9 mph - N/A   Partly Cloudy
8:00 PM 75.2 °F - 75.2 °F 100% 29.77 in 6.2 mi NNE 5.8 mph - N/A   Partly Cloudy
9:00 PM 77.0 °F - 77.0 °F 100% 29.80 in 6.2 mi NNE 6.9 mph - N/A   Partly Cloudy
11:55 PM 78.8 °F - 77.0 °F 94% 29.80 in - NE 5.8 mph - N/A   Unknown